• In Belarus
  • List of Countries
  • For 7 days
  • Water Temperature
  • Satellite Maps
  • Weather Map
  • Weather Widgets
  • user-avatar
    Login

    Hourly Weather Karpovskiy

    Today, 23 September, Sunday

    Time Temperature Precipitation Wind Pressure Humidity
    00:00 +19°C° 0 mm 5 mps 737 mmHg 53%
    01:00 +17°C° 0 mm 5 mps 737 mmHg 54%
    02:00 +18°C° 0 mm 4 mps 737 mmHg 57%
    03:00 +16°C° 0.1 mm 5 mps 737 mmHg 64%
    04:00 +15°C° 0.1 mm 5 mps 737 mmHg 70%
    05:00 +13°C° 0.1 mm 6 mps 737 mmHg 77%
    06:00 +11°C° 0.7 mm 6 mps 737 mmHg 80%
    07:00 +10°C° 0.7 mm 6 mps 738 mmHg 83%
    08:00 +8°C° 0 mm 6 mps 738 mmHg 85%
    09:00 +9°C° 0.3 mm 5 mps 738 mmHg 83%
    10:00 +9°C° 0.3 mm 5 mps 739 mmHg 81%
    11:00 +10°C° 0.3 mm 4 mps 739 mmHg 79%
    12:00 +11°C° 0 mm 4 mps 739 mmHg 77%
    13:00 +11°C° 0 mm 4 mps 739 mmHg 75%
    14:00 +12°C° 0 mm 3 mps 740 mmHg 72%
    15:00 +12°C° 0 mm 3 mps 740 mmHg 73%
    16:00 +12°C° 0 mm 3 mps 740 mmHg 74%
    17:00 +12°C° 0 mm 2 mps 739 mmHg 74%
    18:00 +11°C° 0 mm 3 mps 739 mmHg 77%
    19:00 +10°C° 0 mm 3 mps 740 mmHg 80%
    20:00 +9°C° 0 mm 3 mps 740 mmHg 83%
    21:00 +9°C° 0 mm 3 mps 740 mmHg 85%
    22:00 +8°C° 0 mm 3 mps 740 mmHg 86%
    23:00 +8°C° 0 mm 3 mps 740 mmHg 87%

    Tomorrow, 24 September, Monday

    Time Temperature Precipitation Wind Pressure Humidity
    00:00 +8°C° 0 mm 3 mps 740 mmHg 87%
    01:00 +8°C° 0 mm 3 mps 739 mmHg 88%
    02:00 +7°C° 0 mm 3 mps 739 mmHg 88%
    03:00 +7°C° 0 mm 3 mps 739 mmHg 86%
    04:00 +8°C° 0 mm 3 mps 739 mmHg 84%
    05:00 +8°C° 0 mm 3 mps 739 mmHg 82%
    06:00 +8°C° 0 mm 4 mps 739 mmHg 79%
    07:00 +9°C° 0 mm 5 mps 739 mmHg 75%
    08:00 +10°C° 0 mm 5 mps 738 mmHg 72%
    09:00 +9°C° 0.4 mm 6 mps 738 mmHg 73%
    10:00 +9°C° 0.4 mm 6 mps 737 mmHg 75%
    11:00 +9°C° 0.4 mm 7 mps 737 mmHg 76%
    12:00 +9°C° 0.9 mm 7 mps 736 mmHg 79%
    13:00 +9°C° 0.9 mm 8 mps 735 mmHg 81%
    14:00 +8°C° 0.9 mm 9 mps 734 mmHg 84%
    15:00 +8°C° 1.7 mm 9 mps 733 mmHg 85%
    16:00 +10°C° 1.7 mm 9 mps 732 mmHg 85%
    17:00 +10°C° 1.7 mm 9 mps 731 mmHg 86%
    18:00 +10°C° 0.6 mm 9 mps 730 mmHg 86%
    19:00 +10°C° 0.6 mm 9 mps 730 mmHg 86%
    20:00 +10°C° 0.6 mm 8 mps 729 mmHg 86%
    21:00 +9°C° 0 mm 8 mps 730 mmHg 85%
    22:00 +9°C° 0 mm 8 mps 730 mmHg 85%
    23:00 +7°C° 0 mm 8 mps 730 mmHg 84%

    Day after tomorrow, 25 September, Tuesday

    Time Temperature Precipitation Wind Pressure Humidity
    00:00 +7°C° 0 mm 8 mps 730 mmHg 84%
    01:00 +6°C° 0 mm 8 mps 730 mmHg 84%
    02:00 +6°C° 0 mm 8 mps 731 mmHg 84%
    03:00 +6°C° 0 mm 8 mps 731 mmHg 83%
    04:00 +6°C° 0 mm 8 mps 731 mmHg 83%
    05:00 +6°C° 0 mm 8 mps 731 mmHg 82%
    06:00 +6°C° 0 mm 8 mps 732 mmHg 82%
    07:00 +6°C° 0 mm 8 mps 732 mmHg 82%
    08:00 +6°C° 0 mm 8 mps 733 mmHg 82%
    09:00 +6°C° 0.1 mm 8 mps 734 mmHg 81%
    10:00 +6°C° 0.1 mm 8 mps 734 mmHg 79%
    11:00 +6°C° 0.1 mm 7 mps 735 mmHg 78%
    12:00 +6°C° 0.1 mm 7 mps 736 mmHg 77%
    13:00 +6°C° 0.1 mm 7 mps 736 mmHg 76%
    14:00 +6°C° 0.1 mm 7 mps 737 mmHg 75%
    15:00 +6°C° 0 mm 7 mps 738 mmHg 75%
    16:00 +5°C° 0 mm 7 mps 738 mmHg 75%
    17:00 +5°C° 0 mm 6 mps 739 mmHg 74%
    18:00 +5°C° 0 mm 6 mps 740 mmHg 74%
    19:00 +6°C° 0 mm 5 mps 740 mmHg 74%
    20:00 +6°C° 0 mm 5 mps 741 mmHg 73%
    21:00 +6°C° 0 mm 5 mps 741 mmHg 75%
    22:00 +5°C° 0 mm 5 mps 742 mmHg 77%
    23:00 +5°C° 0 mm 5 mps 742 mmHg 79%

    26 September, Wednesday

    Time Temperature Precipitation Wind Pressure Humidity
    00:00 +4°C° 0 mm 4 mps 743 mmHg 80%
    01:00 +4°C° 0 mm 4 mps 743 mmHg 82%
    02:00 +3°C° 0 mm 4 mps 744 mmHg 83%
    03:00 +3°C° 0 mm 4 mps 745 mmHg 83%
    04:00 +1°C° 0 mm 4 mps 745 mmHg 84%
    05:00 +1°C° 0 mm 4 mps 746 mmHg 84%
    06:00 +1°C° 0 mm 4 mps 746 mmHg 80%
    07:00 +2°C° 0 mm 5 mps 747 mmHg 75%
    08:00 +3°C° 0 mm 5 mps 748 mmHg 71%
    09:00 +5°C° 0 mm 5 mps 748 mmHg 64%
    10:00 +6°C° 0 mm 4 mps 748 mmHg 58%
    11:00 +7°C° 0 mm 4 mps 749 mmHg 52%
    12:00 +8°C° 0 mm 4 mps 749 mmHg 50%
    13:00 +8°C° 0 mm 4 mps 748 mmHg 48%
    14:00 +8°C° 0 mm 4 mps 748 mmHg 46%
    15:00 +9°C° 0 mm 3 mps 748 mmHg 51%
    16:00 +8°C° 0 mm 3 mps 748 mmHg 55%
    17:00 +7°C° 0 mm 2 mps 748 mmHg 60%
    18:00 +7°C° 0 mm 3 mps 748 mmHg 63%
    19:00 +5°C° 0 mm 3 mps 748 mmHg 66%
    20:00 +4°C° 0 mm 4 mps 748 mmHg 70%
    21:00 +4°C° 0 mm 4 mps 748 mmHg 71%
    22:00 +3°C° 0 mm 5 mps 747 mmHg 72%
    23:00 +3°C° 0 mm 5 mps 747 mmHg 74%

    27 September, Thursday

    Time Temperature Precipitation Wind Pressure Humidity
    00:00 +4°C° 0 mm 6 mps 746 mmHg 71%
    01:00 +4°C° 0 mm 6 mps 745 mmHg 68%
    02:00 +4°C° 0 mm 7 mps 745 mmHg 66%
    03:00 +4°C° 0.1 mm 7 mps 744 mmHg 66%
    04:00 +4°C° 0.1 mm 8 mps 743 mmHg 67%
    05:00 +4°C° 0.1 mm 8 mps 742 mmHg 68%
    06:00 +3°C° 0.4 mm 9 mps 742 mmHg 70%
    07:00 +5°C° 0.4 mm 9 mps 741 mmHg 72%
    08:00 +5°C° 0.4 mm 10 mps 741 mmHg 74%
    09:00 +5°C° 0.5 mm 9 mps 740 mmHg 76%
    10:00 +5°C° 0.5 mm 9 mps 740 mmHg 77%
    11:00 +5°C° 0.5 mm 9 mps 740 mmHg 79%
    12:00 +6°C° 0.3 mm 9 mps 740 mmHg 80%
    13:00 +6°C° 0.3 mm 9 mps 740 mmHg 81%
    14:00 +6°C° 0.3 mm 8 mps 739 mmHg 83%
    15:00 +6°C° 0.2 mm 8 mps 739 mmHg 84%
    16:00 +8°C° 0.2 mm 7 mps 739 mmHg 86%
    17:00 +8°C° 0.2 mm 7 mps 739 mmHg 87%
    18:00 +8°C° 0.1 mm 6 mps 740 mmHg 88%
    19:00 +8°C° 0.1 mm 6 mps 740 mmHg 89%
    20:00 +9°C° 0.1 mm 6 mps 740 mmHg 90%
    21:00 +9°C° 0 mm 5 mps 740 mmHg 91%
    22:00 +9°C° 0 mm 5 mps 740 mmHg 92%
    23:00 +9°C° 0 mm 5 mps 741 mmHg 94%

    28 September, Friday

    Time Temperature Precipitation Wind Pressure Humidity
    00:00 +10°C° 0 mm 4 mps 740 mmHg 94%
    01:00 +10°C° 0 mm 4 mps 740 mmHg 95%
    02:00 +10°C° 0 mm 4 mps 740 mmHg 95%
    03:00 +9°C° 0 mm 5 mps 740 mmHg 95%
    04:00 +9°C° 0 mm 5 mps 740 mmHg 95%
    05:00 +9°C° 0 mm 5 mps 739 mmHg 94%
    06:00 +9°C° 0 mm 6 mps 739 mmHg 93%
    07:00 +10°C° 0 mm 7 mps 739 mmHg 91%
    08:00 +10°C° 0 mm 8 mps 738 mmHg 89%
    09:00 +11°C° 0 mm 8 mps 738 mmHg 86%
    10:00 +12°C° 0 mm 9 mps 737 mmHg 83%
    11:00 +13°C° 0 mm 9 mps 737 mmHg 80%
    12:00 +15°C° 0 mm 9 mps 737 mmHg 77%
    13:00 +16°C° 0 mm 10 mps 737 mmHg 73%
    14:00 +17°C° 0 mm 10 mps 737 mmHg 70%
    15:00 +15°C° 0.3 mm 9 mps 737 mmHg 73%
    16:00 +13°C° 0.3 mm 8 mps 738 mmHg 76%
    17:00 +11°C° 0.3 mm 7 mps 738 mmHg 79%
    18:00 +10°C° 0 mm 5 mps 739 mmHg 82%
    19:00 +10°C° 0 mm 4 mps 740 mmHg 84%
    20:00 +8°C° 0 mm 3 mps 741 mmHg 86%
    21:00 +8°C° 0 mm 3 mps 741 mmHg 88%
    22:00 +7°C° 0 mm 2 mps 742 mmHg 89%
    23:00 +6°C° 0 mm 2 mps 742 mmHg 91%
    Show more